Regional Weather Roundup
Issued by NWS

Home | Current Version | Previous Version | Text Only | Print | Product List | Glossary On
Versions: 1 2 3 4 5 6 7 8 9 10 11 12 13 14 15 16 17 18 19 20 21 22 23 24 25 26 27 28 29 30 31 32 33 34 35 36 37 38 39 40 41 42 43 44 45 46 47 48 49 50
000
ASUS45 KPSR 250610
RWRAZ

ARIZONA REGIONAL HOURLY WEATHER ROUNDUP
NATIONAL WEATHER SERVICE PHOENIX AZ
1100 PM MST THU APR 24 2014

NOTE: FAIR INDICATES FEW OR NO CLOUDS BELOW 12,000 FEET WITH NO
SIGNIFICANT WEATHER AND/OR OBSTRUCTIONS TO VISIBILITY.

AZZ001>003-036-250700-
NORTHWEST ARIZONA

CITY           SKY/WX    TMP DP  RH WIND       PRES   REMARKS
BULLHEAD CITY  CLEAR     73  16  11 CALM      29.78F
KINGMAN        CLEAR     57   3  11 S12       29.91F
6HR MIN TEMP:  57; 6HR MAX TEMP:  78;

$$

AZZ004>008-015-016-018-250700-
NORTH CENTRAL ARIZONA

CITY           SKY/WX    TMP DP  RH WIND       PRES   REMARKS
GRAND CANYON   CLEAR     32   5  32 E3        30.07F
6HR MIN TEMP:  32; 6HR MAX TEMP:  69;

WILLIAMS       CLEAR     41   5  22 SE6       30.15F
PRESCOTT       CLEAR     50  13  22 S7        30.02F
6HR MIN TEMP:  50; 6HR MAX TEMP:  72;

FLAGSTAFF      CLEAR     41   8  25 W8        30.10F
6HR MIN TEMP:  39; 6HR MAX TEMP:  63;

PAYSON         CLEAR     57   9  14 CALM      30.06S
PAGE           CLEAR     64  13  13 SW6       29.89F
6HR MIN TEMP:  64; 6HR MAX TEMP:  74;

$$

AZZ009>014-017-250700-
NORTHEAST ARIZONA

CITY           SKY/WX    TMP DP  RH WIND       PRES   REMARKS
WINSLOW        CLEAR     54  12  18 SE6       30.01R
6HR MIN TEMP:  52; 6HR MAX TEMP:  77;

SAINT JOHNS    CLEAR     52   8  17 W7        30.05S
6HR MIN TEMP:  52; 6HR MAX TEMP:  73;

WINDOW ROCK    CLEAR     38   3  23 SW3       30.09S
6HR MIN TEMP:  36; 6HR MAX TEMP:  68;

SHOW LOW       CLEAR     48   9  20 S13       30.10F
$$

AZZ023-250700-
GREATER PHOENIX AREA

CITY           SKY/WX    TMP DP  RH WIND       PRES   REMARKS
PHOENIX        CLEAR     76  23  14 SW3       29.83S
6HR MIN TEMP:  76; 6HR MAX TEMP:  89;

BUCKEYE          N/A     63  27  25 CALM      29.85R
LUKE AFB       NOT AVBL
6HR MIN TEMP:  68; 6HR MAX TEMP:  88;

DEER VALLEY    CLEAR     65  17  15 CALM      29.85S
6HR MIN TEMP:  65; 6HR MAX TEMP:  85;

SCOTTSDALE     CLEAR     73  24  16 N3        29.87S
6HR MIN TEMP:  73; 6HR MAX TEMP:  86;

MESA-GATEWAY   CLEAR     63  27  25 SE6       29.88R
$$

AZZ027-028-250700-
SOUTHWEST MARICOPA COUNTY AND PINAL COUNTY

CITY           SKY/WX    TMP DP  RH WIND       PRES   REMARKS
CASA GRANDE    CLEAR     70  16  12 CALM      29.88S
6HR MIN TEMP:  68; 6HR MAX TEMP:  88;

$$

AZZ503-504-507>509-250700-
SOUTHEAST ARIZONA

CITY           SKY/WX    TMP DP  RH WIND       PRES   REMARKS
TUCSON         CLEAR     72  18  13 CALM      29.96S
6HR MIN TEMP:  72; 6HR MAX TEMP:  88;

DAVIS-MONTHAN  CLEAR     70  20  15 W8        29.95S
6HR MIN TEMP:  69; 6HR MAX TEMP:  87;

NOGALES        CLEAR     65  23  20 SW3       30.02S
6HR MIN TEMP:  61; 6HR MAX TEMP:  82;

SIERRA VISTA   CLEAR     66  10  11 W2        30.05S
DOUGLAS        CLEAR     65  11  12 SW5       30.03S
6HR MIN TEMP:  61; 6HR MAX TEMP:  84;

SAFFORD        CLEAR     66  10  11 W10       29.92S
6HR MIN TEMP:  66; 6HR MAX TEMP:  87;

$$

AZZ020-021-025-026-031-250700-
SOUTHWEST ARIZONA

CITY           SKY/WX    TMP DP  RH WIND       PRES   REMARKS
YUMA           CLEAR     74  34  23 S12       29.81F
6HR MIN TEMP:  74; 6HR MAX TEMP:  91;

$$

CAZ031-033-041-043-047-048-061-250700-
SOUTHERN CALIFORNIA

CITY           SKY/WX    TMP DP  RH WIND       PRES   REMARKS
DOWNTOWN L.A.  CLEAR     61  53  75 CALM      29.93S
6HR MIN TEMP:  61; 6HR MAX TEMP:  72;

L.A. AIRPORT   CLEAR     61  53  75 W3        29.93F
6HR MIN TEMP:  61; 6HR MAX TEMP:  68;

SAN DIEGO      PTCLDY    63  54  72 S6        29.98S
6HR MIN TEMP:  63; 6HR MAX TEMP:  67;

BURBANK        CLEAR     61  49  64 E7        29.92F
6HR MIN TEMP:  61; 6HR MAX TEMP:  76;

ONTARIO        CLEAR     62  46  55 W6        29.94S
6HR MIN TEMP:  61; 6HR MAX TEMP:  80;

RIVERSIDE      CLEAR     63  44  50 CALM      29.95R
6HR MIN TEMP:  62; 6HR MAX TEMP:  80;

PALM SPRINGS   CLEAR     75  41  29 NW14G22   29.81F
6HR MIN TEMP:  75; 6HR MAX TEMP:  90;

EL CENTRO NAS  PTCLDY    73  40  30 W13       29.79S
6HR MIN TEMP:  72; 6HR MAX TEMP:  91;

IMPERIAL       CLEAR     71  41  33 SW7       29.79S
6HR MIN TEMP:  70; 6HR MAX TEMP:  90;

BLYTHE         CLEAR     77  35  21 S14       29.80S
6HR MIN TEMP:  76; 6HR MAX TEMP:  91;

NEEDLES        CLEAR     75   9   8 SW9       29.78F
6HR MIN TEMP:  75; 6HR MAX TEMP:  91;

$$

NVZ020-UTZ003-250700-
SOUTHERN NEVADA-UTAH

CITY           SKY/WX    TMP DP  RH WIND       PRES   REMARKS
LAS VEGAS      PTCLDY    75   8   7 S15       29.76F
6HR MIN TEMP:  74; 6HR MAX TEMP:  85;

SALT LAKE CITY MOCLDY    51  33  50 E6        29.86S
6HR MIN TEMP:  50; 6HR MAX TEMP:  66;

$$

NMZ009-TXZ055-250700-
NEW MEXICO-WEST TEXAS

CITY           SKY/WX    TMP DP  RH WIND       PRES   REMARKS
ALBUQUERQUE    CLEAR     56   8  14 E3        30.02S
6HR MIN TEMP:  56; 6HR MAX TEMP:  70;

EL PASO        CLEAR     68  18  14 S8        29.97F
6HR MIN TEMP:  66; 6HR MAX TEMP:  81;

$$


........................KEY........................
SKY/WX - SKY CONDITION/WEATHER
TMP    - TEMPERATURE IN FAHRENHEIT
DP     - DEW POINT IN FAHRENHEIT
RH     - RELATIVE HUMIDITY IN PERCENT
WIND   - DIRECTION AND SPEED IN MILES PER HOUR (MPH)
VRB    - VARIABLE WIND DIRECTION
PRES   - MEAN SEA LEVEL PRESSURE IN INCHES OF MERCURY
         F - FALLING PRESSURE   R - RISING PRESSURE
         S - STEADY PRESSURE
VSB    - VISIBILITY IN MILES
HX     - HEAT INDEX IN FAHRENHEIT
WCI    - WIND CHILL INDEX IN FAHRENHEIT
TC     - TEMPERATURE IN CELSIUS WHICH IS ALSO KNOWN AS
         TEMPERATURE IN CENTIGRADE
AFB    - AIR FORCE BASE
         LUKE AFB IS LUKE AIR FORCE BASE
         DAVIS-MONTHAN IS DAVIS-MONTHAN AIR FORCE BASE
NAS    - NAVAL AIR STATION
         EL CENTRO NAS IS EL CENTRO NAVAL AIR STATION
N/A    - NOT AVAILABLE



USA.gov is the U.S. government's official web portal to all federal, state and local government web resources and services.